Tracking 20748 objects as of 4-Jun-2020
HD Live streaming from Space Station
objects crossing your sky now
Track the most recent launched group of Starlink satellites

CZ-2C R/B

Track CZ-2C R/B now!
10-day predictions


NORAD ID: 28480
Int'l Code: 2004-046B
Perigee: 712.2 km
Apogee: 914.2 km
Inclination: 98.1 °
Period: 101.0 minutes
Semi major axis: 7184 km
RCS: 10.5659 m2 (large)
Launch date: November 18, 2004
Source: People's Republic of China (PRC)
Launch site: Xichang Space Center, China (XSC)

Note: This is a ROCKET BODY
aabbcc
Your satellite tracking list
Your tracking list is empty




NASA's NSSDC Master Catalog

Two Line Element Set (TLE):
1 28480U 04046B   20155.89318793 +.00000019 +00000-0 +22952-4 0  9991
2 28480 098.0792 191.8906 0140594 265.2140 269.6171 14.25723229808483
Source of the keplerian elements: AFSPC